Weather History for South Bend, IN

Change the Weather History Date:

Monday, January 21, 2013

  Actual Average Record
Temperature  
Mean Temperature 14 °F 24 °F  
Max Temperature 19 °F 31 °F 66 °F (1906)
Min Temperature 8 °F 17 °F -21 °F (1984)
Degree Days  
Heating Degree Days 51 41  
Month to date heating degree days 756 853  
Since 1 July heating degree days 2956 3244  
Cooling Degree Days 0 0  
Month to date cooling degree days 0 0  
Year to date cooling degree days 0 0  
Moisture  
Dew Point 4 °F    
Average Humidity 69    
Maximum Humidity 84    
Minimum Humidity 54    
Precipitation  
Precipitation 0.11 in 0.07 in 1.50 in (1904)
Month to date precipitation 1.38 1.64  
Year to date precipitation 1.38 1.64  
Snow  
Snow 1.40 in - - ()
Month to date snowfall 1.7  
Snow Depth T in    
Sea Level Pressure  
Sea Level Pressure 30.13 in    
Wind  
Wind Speed 16 mph (West)    
Max Wind Speed 26 mph    
Max Gust Speed 32 mph    
Visibility 3 miles    
Events Snow    
T = Trace of Precipitation, MM = Missing Value Source: NWS Daily Summary

Daily Weather History Graph

Daily Weather History Graph

Search for Another Location

Airport:

Trip Planner

Search our weather history database for the weather conditions in past years. The results will help you decide how hot, cold, wet, or windy it might be!

Date:

Astronomy

Jan. 21, 2013 Rise Set
Actual Time 8:06 AM EST 5:47 PM EST
Civil Twilight 7:36 AM EST 6:17 PM EST
Nautical Twilight 7:02 AM EST 6:51 PM EST
Astronomical Twilight 6:29 AM EST 7:24 PM EST
Moon 1:26 PM EST 3:34 AM EST
Length of Visible Light 10h 41m
Length of Day
9h 40m
Waxing Gibbous, 75% of the Moon is Illuminated
Jan 21
Waxing Gibbous
Jan 26
Full
Feb 3
Last Quarter
Feb 10
New
Feb 17
First Quarter

Hourly Weather History & Observations

Time (EST) Temp. Windchill Dew Point Humidity Pressure Visibility Wind Dir Wind Speed Gust Speed Precip Events Conditions
12:54 AM 19.0 °F 6.1 °F 6.1 °F 57% 30.19 in 10.0 mi WSW 12.7 mph - N/A   Overcast
1:54 AM 18.0 °F 4.8 °F 5.0 °F 57% 30.17 in 10.0 mi West 12.7 mph - N/A   Overcast
2:54 AM 18.0 °F 6.9 °F 3.9 °F 54% 30.17 in 10.0 mi West 9.2 mph - N/A   Overcast
3:54 AM 17.1 °F 2.5 °F 3.9 °F 56% 30.15 in 10.0 mi West 15.0 mph 23.0 mph N/A   Overcast
4:54 AM 16.0 °F 1.7 °F 5.0 °F 62% 30.13 in 10.0 mi West 13.8 mph - N/A   Overcast
5:54 AM 15.1 °F 1.1 °F 7.0 °F 70% 30.13 in 7.0 mi West 12.7 mph - 0.00 in Snow Light Snow
6:54 AM 15.1 °F 1.1 °F 7.0 °F 70% 30.13 in 10.0 mi WSW 12.7 mph - 0.00 in   Overcast
7:30 AM 14.0 °F -2.0 °F 6.8 °F 73% 30.08 in 5.0 mi WSW 16.1 mph 20.7 mph 0.00 in Snow Light Snow
7:47 AM 14.0 °F 0.5 °F 8.6 °F 79% 30.08 in 1.2 mi West 11.5 mph - 0.00 in Snow Light Snow
7:54 AM 14.0 °F -0.2 °F 8.1 °F 77% 30.12 in 1.0 mi WSW 12.7 mph - 0.00 in Snow Light Snow
8:42 AM 12.2 °F -4.8 °F 8.6 °F 85% 30.07 in 0.5 mi West 17.3 mph 23.0 mph 0.00 in Snow Light Snow
8:46 AM 12.2 °F -4.3 °F 6.8 °F 79% 30.08 in 1.0 mi WSW 16.1 mph - 0.00 in Snow Light Snow
8:54 AM 12.9 °F -2.8 °F 8.1 °F 81% 30.13 in 1.0 mi WSW 15.0 mph - 0.01 in Snow Light Snow
8:58 AM 12.2 °F -4.3 °F 6.8 °F 79% 30.08 in 1.0 mi WSW 16.1 mph - 0.00 in Snow Light Snow
9:17 AM 12.2 °F -5.8 °F 6.8 °F 79% 30.09 in 3.0 mi West 19.6 mph - 0.00 in Snow Light Snow
9:21 AM 12.2 °F -4.8 °F 6.8 °F 79% 30.09 in 1.0 mi West 17.3 mph - 0.00 in Snow Light Snow
9:54 AM 12.9 °F -3.9 °F 5.0 °F 71% 30.13 in 6.0 mi West 17.3 mph 24.2 mph 0.00 in Snow Light Snow
10:01 AM 12.2 °F -5.8 °F 3.2 °F 67% 30.09 in 4.0 mi West 19.6 mph 25.3 mph 0.00 in Snow Light Snow
10:04 AM 12.2 °F -5.8 °F 5.0 °F 73% 30.09 in 1.0 mi West 19.6 mph - 0.00 in Snow Light Snow
10:13 AM 12.2 °F -3.7 °F 6.8 °F 79% 30.09 in 1.0 mi West 15.0 mph - 0.00 in Snow Light Snow
10:46 AM 12.2 °F -4.3 °F 8.6 °F 85% 30.10 in 0.5 mi West 16.1 mph - 0.00 in Snow Snow
10:54 AM 12.9 °F -6.1 °F 7.0 °F 77% 30.14 in 0.5 mi West 23.0 mph - 0.00 in Snow Snow
11:23 AM 12.2 °F -4.8 °F -0.4 °F 57% 30.09 in 9.0 mi West 17.3 mph 28.8 mph 0.00 in   Scattered Clouds
11:24 AM 14.0 °F -3.0 °F -0.4 °F 53% 30.10 in 9.0 mi West 18.4 mph 28.8 mph 0.00 in   Scattered Clouds
11:43 AM 14.0 °F -2.5 °F -0.4 °F 53% 30.09 in 10.0 mi West 17.3 mph 27.6 mph 0.00 in   Mostly Cloudy
11:54 AM 14.0 °F -4.7 °F 1.0 °F 56% 30.14 in 5.0 mi West 23.0 mph - 0.00 in Snow Light Snow
11:58 AM 14.0 °F -3.9 °F 1.4 °F 57% 30.09 in 2.5 mi WNW 20.7 mph 27.6 mph 0.00 in Snow Light Snow
12:24 PM 15.8 °F -1.1 °F 1.4 °F 53% 30.08 in 10.0 mi West 19.6 mph 29.9 mph 0.00 in   Overcast
12:51 PM 14.0 °F -4.7 °F 3.2 °F 62% 30.08 in 10.0 mi West 23.0 mph 31.1 mph 0.00 in   Mostly Cloudy
12:54 PM 12.9 °F -6.5 °F 1.9 °F 62% 30.12 in 9.0 mi West 24.2 mph 31.1 mph 0.00 in   Mostly Cloudy
1:25 PM 14.0 °F -4.3 °F 5.0 °F 67% 30.07 in 2.0 mi West 21.9 mph 26.5 mph 0.00 in Snow Light Snow
1:54 PM 12.0 °F -6.0 °F 3.9 °F 70% 30.12 in 2.0 mi West 19.6 mph 31.1 mph 0.00 in Snow Light Snow
2:54 PM 12.0 °F -6.5 °F 3.9 °F 70% 30.14 in 2.0 mi West 20.7 mph 28.8 mph 0.00 in Snow Light Snow
2:56 PM 10.4 °F -7.2 °F 3.2 °F 73% 30.10 in 0.8 mi West 17.3 mph 28.8 mph 0.00 in Snow Light Snow
3:11 PM 10.4 °F -7.7 °F 5.0 °F 79% 30.10 in 0.8 mi West 18.4 mph 26.5 mph 0.00 in Snow Light Snow
3:22 PM 10.4 °F -6.6 °F 3.2 °F 73% 30.10 in 2.0 mi West 16.1 mph 27.6 mph 0.00 in Snow Light Snow
3:29 PM 10.4 °F -9.1 °F 1.4 °F 67% 30.10 in 0.8 mi West 21.9 mph 28.8 mph 0.00 in Snow Light Snow
3:54 PM 10.0 °F -7.6 °F 3.9 °F 76% 30.16 in 0.8 mi West 17.3 mph - 0.00 in Snow Light Snow
4:50 PM 10.4 °F -6.0 °F 5.0 °F 79% 30.13 in 0.8 mi West 15.0 mph - 0.00 in Snow Light Snow
4:54 PM 10.0 °F -3.7 °F 5.0 °F 80% 30.18 in 0.8 mi West 10.4 mph 20.7 mph 0.00 in Snow Light Snow
4:58 PM 10.4 °F -5.4 °F 3.2 °F 73% 30.12 in 1.0 mi West 13.8 mph 20.7 mph 0.00 in Snow Light Snow
5:12 PM 10.4 °F -6.6 °F 3.2 °F 73% 30.13 in 0.5 mi West 16.1 mph - 0.00 in Snow Snow
5:30 PM 10.4 °F -6.6 °F 5.0 °F 79% 30.13 in 1.0 mi West 16.1 mph - 0.00 in Snow Light Snow
5:35 PM 10.4 °F -6.0 °F 3.2 °F 73% 30.13 in 0.8 mi West 15.0 mph - 0.00 in Snow Light Snow
5:45 PM 10.4 °F -4.8 °F 5.0 °F 79% 30.13 in 0.5 mi West 12.7 mph 25.3 mph 0.00 in Snow Snow
5:52 PM 10.4 °F -6.0 °F 5.0 °F 79% 30.13 in 0.2 mi West 15.0 mph - 0.00 in Snow Heavy Snow
5:54 PM 10.4 °F -6.0 °F 5.0 °F 79% 30.13 in 0.2 mi West 15.0 mph 21.9 mph N/A Snow Heavy Snow
5:58 PM 10.4 °F -6.0 °F 3.2 °F 73% 30.13 in 0.5 mi West 15.0 mph 21.9 mph 0.00 in Snow Snow
6:24 PM 10.4 °F -4.1 °F 3.2 °F 73% 30.14 in 0.5 mi West 11.5 mph - 0.01 in Snow Snow
6:50 PM 10.4 °F -5.4 °F 3.2 °F 73% 30.14 in 2.0 mi West 13.8 mph 20.7 mph 0.01 in Snow Light Snow
6:54 PM 10.0 °F -7.1 °F 3.9 °F 76% 30.19 in 1.5 mi West 16.1 mph 20.7 mph 0.01 in Snow Light Snow
7:54 PM 10.0 °F -7.1 °F 1.0 °F 67% 30.19 in 1.5 mi West 16.1 mph 24.2 mph 0.00 in Snow Light Snow
8:54 PM 10.0 °F -7.1 °F 3.0 °F 73% 30.20 in 1.8 mi West 16.1 mph 24.2 mph 0.00 in Snow Light Snow
9:54 PM 9.0 °F -9.5 °F 3.9 °F 80% 30.22 in 1.8 mi West 18.4 mph 21.9 mph 0.00 in Snow Light Snow
10:10 PM 8.6 °F -8.3 °F 3.2 °F 79% 30.17 in 0.8 mi West 15.0 mph - 0.00 in Snow Light Snow
10:34 PM 8.6 °F -8.3 °F 3.2 °F 79% 30.17 in 1.0 mi West 15.0 mph - 0.00 in Snow Light Snow
10:45 PM 8.6 °F -8.3 °F 3.2 °F 79% 30.17 in 0.8 mi West 15.0 mph - 0.00 in Snow Light Snow
10:54 PM 9.0 °F -7.9 °F 3.9 °F 80% 30.23 in 0.8 mi West 15.0 mph - 0.00 in Snow Light Snow
11:03 PM 8.6 °F -8.3 °F 3.2 °F 79% 30.18 in 0.5 mi WNW 15.0 mph - 0.00 in Snow Snow
11:43 PM 8.6 °F -7.0 °F 3.2 °F 79% 30.19 in 0.8 mi West 12.7 mph 20.7 mph 0.01 in Snow Light Snow
11:54 PM 8.1 °F -8.4 °F 3.0 °F 80% 30.24 in 0.8 mi West 13.8 mph 21.9 mph 0.01 in Snow Light Snow